Simultaneous Nadir Overpasses (SNOs) Predictions

Prediction of SNOs between GOES-16 and AQUA Satellite Orbit:

Table of predicted SNOs for the next 14.0 days since TLE Epoch: 5/12/2017
Index Date Time (GOES-16) GOES-16 Lat,Lon AQUA Lat,Lon Distance(km) Time Diff (sec)
1 05/13/2017 07:19:06 0.00, -89.53 -0.67, -86.33 363.68 80
2 05/13/2017 19:40:30 -0.00, -89.51 -0.43, -91.52 228.45 80
3 05/15/2017 19:30:59 0.00, -89.54 0.20, -88.57 109.74 80
4 05/16/2017 07:52:15 -0.00, -89.57 0.88, -93.73 473.41 80
5 05/17/2017 19:18:48 0.01, -89.56 0.84, -85.62 448.20 80
6 05/18/2017 07:40:04 -0.01, -89.59 0.24, -90.78 134.93 80
7 05/20/2017 07:25:13 -0.01, -89.62 -0.40, -87.83 203.91 80
8 05/20/2017 19:46:37 0.01, -89.60 -0.70, -93.02 388.57 80
9 05/22/2017 19:34:26 0.01, -89.63 -0.05, -90.07 49.48 80
10 05/24/2017 19:24:54 0.02, -89.66 0.54, -87.11 289.81 80
11 05/25/2017 07:46:10 -0.02, -89.70 0.53, -92.27 292.62 80




NCC Satellite Simultaneous Nadir Overpasses (SNOs) Prediction Service
